W7DG Weather Reports


time (UTC)temp
C
wind
direction
speed
KPH
gust
KPH
rain 1hr
cm
rain 24hr
cm
rain mn
cm
humidity
%
barometer
mb
20260503110309 15 17 16.1 32.2 0.00 0.00 0.00 66 1013.6
20260503090309 17 35 11.3 25.7 0.00 0.00 0.00 63 1014.0
20260503080910 17 0 0.0 32.2 0.00 0.00 0.00 65 1014.4
20260503080309 17 22 4.8 32.2 0.00 0.00 0.00 65 1014.3
20260503072411 17 0 8.0 24.1 0.00 0.00 0.00 63 1014.7
20260503071810 17 0 20.9 24.1 0.00 0.00 0.00 63 1014.7
20260503070912 17 351 6.4 24.1 0.00 0.00 0.00 62 1014.7
20260503070310 17 14 1.6 24.1 0.00 0.00 0.00 62 1014.7
20260503060310 18 5 29.0 29.0 0.00 0.00 0.00 57 1014.3
20260503054810 18 35 11.3 22.5 0.00 0.00 0.00 56 1014.6
20260503053911 18 27 8.0 20.9 0.00 0.00 0.00 56 1014.7
20260503053310 18 0 0.0 16.1 0.00 0.00 0.00 57 1014.9
20260503052411 18 14 1.6 12.9 0.00 0.00 0.00 57 1014.8
20260503051810 18 5 4.8 12.9 0.00 0.00 0.00 57 1014.9
20260503050911 18 0 0.0 12.9 0.00 0.00 0.00 57 1014.9
20260503050309 18 0 0.0 12.9 0.00 0.00 0.00 57 1014.9
20260503045411 18 0 0.0 11.3 0.00 0.00 0.00 56 1014.9
20260503044809 18 0 0.0 9.7 0.00 0.00 0.00 57 1014.8
20260503043911 18 0 0.0 1.6 0.00 0.00 0.00 58 1014.7
20260503043309 18 0 0.0 0.0 0.00 0.00 0.00 57 1014.7
20260503042411 18 0 0.0 4.8 0.00 0.00 0.00 59 1014.7
20260503041809 18 0 0.0 4.8 0.00 0.00 0.00 60 1014.5
20260503040911 19 0 0.0 4.8 0.00 0.00 0.00 55 1014.5
20260503040309 19 0 0.0 4.8 0.00 0.00 0.00 56 1014.2
20260503035411 19 327 9.7 19.3 0.00 0.00 0.00 55 1014.1
20260503034809 19 19 8.0 14.5 0.00 0.00 0.00 55 1014.0
20260503033910 20 0 0.0 12.9 0.00 0.00 0.00 54 1013.9
20260503033309 20 0 0.0 0.0 0.00 0.00 0.00 54 1013.8